Location: Unspecified
(41.1637°N, 24.2901°E)
Time: 22:13:31
(UTC+02:00)

ISS - Pass Details

Date: 12 September 2019
Orbit: 411 x 421 km, 51.6° (Epoch: 19 September)

Event Time Altitude Azimuth Distance (km) Brightness Sun altitude
Exits shadow 04:43:37 - 316° (NW) 1,554 -1.1 -14.8°
Reaches altitude 10° 04:43:47 10° 316° (NW) 1,490 -1.2 -14.7°
Maximum altitude 04:46:59 42° 29° (NNE) 609 -2.6 -14.2°
Drops below altitude 10° 04:50:11 10° 102° (ESE) 1,490 0.0 -13.6°
Sets 04:52:21 0° 110° (ESE) 2,352 0.9 -13.2°
